timestamp,surface_pressure_avg,surface_temp_avg,battery_voltage,lat,long
2020-04-17 00:09:01+00:00,217.4831,1.9,12.81,47.84626,-54.09684
2020-04-17 00:19:01+00:00,233.2082,1.7,12.65,47.84626,-54.09684
2020-04-17 00:29:01+00:00,236.1431,1.66,12.65,47.84626,-54.09684
2020-04-17 00:39:01+00:00,229.5448,1.68,12.65,47.84626,-54.09684
2020-04-17 00:49:01+00:00,233.0148,1.6,12.65,47.84626,-54.09684
2020-04-17 00:59:01+00:00,236.7081,1.6,12.65,47.84626,-54.09684
2020-04-17 01:09:01+00:00,230.9114,1.6,12.65,47.84626,-54.09684
2020-04-17 01:19:01+00:00,228.9315,1.6,12.65,47.84626,-54.09684
2020-04-17 01:29:01+00:00,235.6797,1.6,12.65,47.84626,-54.09684
2020-04-17 01:39:01+00:00,239.6181,1.63,12.65,47.84626,-54.09684
2020-04-17 01:49:01+00:00,233.9581,1.67,12.65,47.84626,-54.09684
2020-04-17 01:59:01+00:00,231.0998,1.7,12.65,47.84626,-54.09684
2020-04-17 02:09:01+00:00,236.9764,1.7,12.65,47.84626,-54.09684
2020-04-17 02:19:01+00:00,240.2331,1.6,12.65,47.84626,-54.09684
2020-04-17 02:29:01+00:00,241.7148,1.53,12.65,47.84626,-54.09684
2020-04-17 02:39:01+00:00,241.1514,1.5,12.65,47.84626,-54.09684
2020-04-17 02:49:01+00:00,244.7264,1.5,12.65,47.84626,-54.09684
2020-04-17 02:59:01+00:00,247.2031,1.5,12.65,47.84626,-54.09684
2020-04-17 03:09:01+00:00,247.6464,1.53,12.65,47.84626,-54.09684
2020-04-17 03:19:01+00:00,245.7381,1.6,12.65,47.84626,-54.09684
2020-04-17 03:29:01+00:00,244.6147,1.69,12.65,47.84626,-54.09684
2020-04-17 03:39:01+00:00,249.0914,1.7,12.65,47.84626,-54.09684
2020-04-17 03:49:01+00:00,250.8581,1.76,12.65,47.84626,-54.09684
2020-04-17 03:59:01+00:00,251.4597,1.79,12.65,47.84626,-54.09684
2020-04-17 04:09:01+00:00,250.9314,1.79,12.65,47.84626,-54.09684
2020-04-17 04:19:01+00:00,256.8214,1.8,12.57,47.84626,-54.09684
2020-04-17 04:29:01+00:00,261.0031,1.75,12.57,47.84626,-54.09684
2020-04-17 04:39:01+00:00,267.0014,1.7,12.57,47.84626,-54.09684
2020-04-17 04:49:01+00:00,261.2297,1.7,12.57,47.84626,-54.09684
2020-04-17 04:59:01+00:00,269.4814,1.7,12.57,47.84626,-54.09684
2020-04-17 05:09:01+00:00,280.7263,1.6,12.57,47.84626,-54.09684
2020-04-17 05:19:01+00:00,285.2114,1.69,12.57,47.84626,-54.09684
2020-04-17 05:29:01+00:00,283.1497,1.8,12.57,47.84626,-54.09684
2020-04-17 05:39:01+00:00,291.9581,1.7,12.57,47.84626,-54.09684
2020-04-17 05:49:01+00:00,297.283,1.61,12.57,47.84626,-54.09684
2020-04-17 05:59:01+00:00,295.8947,1.9,12.57,47.84626,-54.09684
2020-04-17 06:09:01+00:00,297.403,2.0,12.57,47.84626,-54.09684
2020-04-17 06:19:01+00:00,311.7863,1.89,12.57,47.84626,-54.09684
2020-04-17 06:29:01+00:00,314.21299999999997,2.0,12.57,47.84626,-54.09684
2020-04-17 06:39:01+00:00,312.923,1.98,12.57,47.84626,-54.09684
2020-04-17 06:49:01+00:00,321.6146,1.6,12.57,47.84626,-54.09684
2020-04-17 06:59:01+00:00,328.9547,1.59,12.57,47.84626,-54.09684
2020-04-17 07:09:01+00:00,321.6096,1.66,12.57,47.84626,-54.09684
2020-04-17 07:19:01+00:00,314.4097,1.6,12.57,47.84626,-54.09684
2020-04-17 07:29:01+00:00,328.2747,1.6,12.57,47.84626,-54.09684
2020-04-17 07:39:01+00:00,337.3763,1.59,12.57,47.84626,-54.09684
2020-04-17 07:49:01+00:00,324.4113,1.6,12.57,47.84626,-54.09684
2020-04-17 07:59:01+00:00,323.3947,1.65,12.57,47.84626,-54.09684
2020-04-17 08:09:01+00:00,334.8796,1.67,12.57,47.84626,-54.09684
2020-04-17 08:19:01+00:00,327.9196,1.63,12.57,47.84626,-54.09684
2020-04-17 08:29:01+00:00,318.163,1.8,12.57,47.84626,-54.09684
2020-04-17 08:39:01+00:00,325.8081,1.6,12.57,47.84626,-54.09684
2020-04-17 08:49:01+00:00,332.4963,1.65,12.57,47.84626,-54.09684
2020-04-17 08:59:01+00:00,319.27299999999997,1.9,12.57,47.84626,-54.09684
2020-04-17 09:09:01+00:00,317.0464,1.8,12.57,47.84626,-54.09684
2020-04-17 09:19:01+00:00,327.8246,1.8,12.57,47.84626,-54.09684
2020-04-17 09:29:01+00:00,328.4947,1.8,12.57,47.84626,-54.09684
2020-04-17 09:39:01+00:00,314.7713,1.89,12.57,47.84626,-54.09684
2020-04-17 09:49:01+00:00,310.603,1.9,12.57,47.84626,-54.09684
2020-04-17 09:59:01+00:00,310.6213,1.9,12.57,47.84626,-54.09684
2020-04-17 10:09:01+00:00,305.0181,1.89,12.57,47.84626,-54.09684
2020-04-17 10:19:01+00:00,292.6614,1.9,13.92,47.84626,-54.09684
2020-04-17 10:29:01+00:00,286.4297,1.9,13.92,47.84626,-54.09684
2020-04-17 10:39:01+00:00,283.5364,1.9,13.92,47.84626,-54.09684
2020-04-17 10:49:01+00:00,283.073,1.91,13.92,47.84626,-54.09684
2020-04-17 10:59:01+00:00,271.6047,1.9,13.92,47.84626,-54.09684
2020-04-17 11:09:01+00:00,266.3698,1.9,13.92,47.84626,-54.09684
2020-04-17 11:19:01+00:00,267.6848,1.93,14.64,47.84626,-54.09684
2020-04-17 11:29:01+00:00,267.7897,1.9,14.64,47.84626,-54.09684
2020-04-17 11:39:01+00:00,253.6781,1.9,14.64,47.84626,-54.09684
2020-04-17 11:49:01+00:00,247.5764,1.89,14.64,47.84626,-54.09684
2020-04-17 11:59:01+00:00,251.5848,1.89,14.64,47.84626,-54.09684
2020-04-17 12:09:01+00:00,247.1198,1.9,14.64,47.84626,-54.09684
2020-04-17 12:19:01+00:00,240.3297,1.93,14.72,47.84626,-54.09684
2020-04-17 12:29:01+00:00,242.8681,1.86,14.72,47.84626,-54.09684
2020-04-17 12:39:01+00:00,242.9464,1.82,14.72,47.84626,-54.09684
2020-04-17 12:49:01+00:00,236.4314,1.92,14.72,47.84626,-54.09684
2020-04-17 12:59:01+00:00,237.7914,1.96,14.72,47.84626,-54.09684
2020-04-17 13:09:01+00:00,244.5014,1.85,14.72,47.84626,-54.09684
2020-04-17 13:19:01+00:00,244.1514,1.88,14.72,47.84626,-54.09684
2020-04-17 13:29:01+00:00,243.5498,1.9,14.72,47.84626,-54.09684
2020-04-17 13:39:01+00:00,241.8064,1.9,14.72,47.84626,-54.09684
2020-04-17 13:49:01+00:00,239.9214,1.92,14.72,47.84626,-54.09684
2020-04-17 13:59:01+00:00,234.7714,1.98,14.72,47.84626,-54.09684
2020-04-17 14:09:01+00:00,231.2148,1.92,14.72,47.84626,-54.09684
2020-04-17 14:19:01+00:00,228.6964,1.9,14.64,47.84626,-54.09684
2020-04-17 14:29:01+00:00,229.4697,1.81,14.64,47.84626,-54.09684
2020-04-17 14:39:01+00:00,228.6081,1.84,14.64,47.84626,-54.09684
2020-04-17 14:49:01+00:00,225.0598,1.89,14.64,47.84626,-54.09684
2020-04-17 14:59:01+00:00,226.2314,1.9,14.64,47.84626,-54.09684
2020-04-17 15:09:01+00:00,233.7014,1.9,14.64,47.84626,-54.09684
2020-04-17 15:19:01+00:00,236.9114,1.9,14.64,47.84626,-54.09684
2020-04-17 15:29:01+00:00,233.8864,1.98,14.64,47.84626,-54.09684
2020-04-17 15:39:01+00:00,234.9314,2.0,14.64,47.84626,-54.09684
2020-04-17 15:49:01+00:00,237.8531,2.08,14.64,47.84626,-54.09684
2020-04-17 15:59:01+00:00,237.2164,2.17,14.64,47.84626,-54.09684
2020-04-17 16:09:01+00:00,233.1081,2.2,14.64,47.84626,-54.09684
2020-04-17 16:19:01+00:00,237.0814,2.3,14.32,47.84626,-54.09684
2020-04-17 16:29:01+00:00,243.0597,2.39,14.32,47.84626,-54.09684
2020-04-17 16:39:01+00:00,245.4048,2.4,14.32,47.84626,-54.09684
2020-04-17 16:49:01+00:00,245.6647,2.46,14.32,47.84626,-54.09684
2020-04-17 16:59:01+00:00,251.1248,2.5,14.32,47.84626,-54.09684
2020-04-17 17:09:01+00:00,256.6697,2.5,14.32,47.84626,-54.09684
